Find Starlink 1063

NORAD ID: 44768 Int'l Des: 2019-074 Owner: SPXS Country: US Constellation: starlink operational
LEOCIRCULAR

リアルタイム位置

3D地球を読み込み中...

Starlink 1063について

説明を読み込み中...

次回通過

Passes for default location (London). Set your location on the main map for personalized predictions.

高度履歴

Loading altitude history...

軌道要素

1 44768U 19074BH 26121.18029865 .00061321 00000-0 12259-2 0 9995
2 44768 53.1583 333.9435 0001051 104.9849 255.1275 15.46237615356379
Epoch: May 1, 2026 • Age: 11 hours

現在のステータス

高度 432.7 km
速度 7.66 km/s
衛星直下点 50.32°N, 6.44°W
打ち上げ日 Nov 11, 2019
運用期間 6.4 years
タイプ internet

技術仕様

分類 Payload
質量 260.00 kg
乾燥質量 248.00 kg
総質量 260.00 kg
長さ 0.20 m
直径 2.80 m
スパン 9.00 m
形状 Box + pan
製造者 SPXS
バスタイプ Starlink
フェーズステータス In Orbit
所有者/国 SPXS/US

Most Searched